{"data":{"norad_id":68121,"intl_designator":"2026-044W","name":"STARLINK-36855","alt_names":[],"object_type":"PAYLOAD","status":"ACTIVE","operator":null,"country":"US","launch_date":"2026-03-08","launch_site_code":"AFWTR","launch_vehicle":null,"mission":null,"orbit_class":"UNKNOWN","rcs_meters":null,"size_class":null,"mass_kg":null,"dimensions":null,"purposes":["comms"],"wikipedia_slug":null,"has_3d_model":false,"image_url":null,"decayed_at":null,"tle_current":{"epoch":"2026-05-24T19:38:48.239232Z","epoch_age_seconds":80896,"freshness":"FRESH","line1":"1 68121U 26044W   26144.81861388  .00019568  00000+0  60679-3 0  9993","line2":"2 68121  97.2852 105.5093 0001944  93.7799 266.3666 15.33448311 13257","mean_motion":15.33448311,"eccentricity":0.0001944,"inclination_deg":97.2852,"raan_deg":105.5093,"arg_perigee_deg":93.7799,"mean_anomaly_deg":266.3666,"bstar":0.00060679,"rev_number":1325,"period_min":93.90600189588,"perigee_km":464.2029137785,"apogee_km":466.86373280019,"semimajor_km":6843.6703232893,"source":"CELESTRAK","updated_at":"2026-05-25T13:38:21.845135Z"}}}